Fort Worth NAS, TX

2:06 PM CDT on June 23, 2017 (GMT -0500)
Fort Worth Naval Air Station Jrb

Weather History for KNFW - July, 2013

Change the Weather History Date:

Saturday, July 6, 2013

  Actual Average Record
Temperature  
Mean Temperature 90 °F -  
Max Temperature 100 °F 92 °F 105 °F (1996)
Min Temperature 79 °F 73 °F 68 °F (1997)
Cooling Degree Days 24    
Growing Degree Days 40 (Base 50)    
Moisture  
Dew Point 56 °F    
Average Humidity 34    
Maximum Humidity 51    
Minimum Humidity 19    
Precipitation  
Precipitation 0.00 in - - ()
Sea Level Pressure  
Sea Level Pressure 29.91 in    
Wind  
Wind Speed 9 mph (SE)    
Max Wind Speed 16 mph    
Max Gust Speed 23 mph    
Visibility 10 miles    
Events      
Averages and records for this station are not official NWS values.
T = Trace of Precipitation, MM = Missing Value Source: NWS Daily Summary

Daily Weather History Graph

Daily Weather History Graph

Search for Another Location

Airport or City:

Trip Planner

Search our weather history database for the weather conditions in past years. The results will help you decide how hot, cold, wet, or windy it might be!

Date:

Astronomy

Jul. 06, 2013 Rise Set
Actual Time 6:27 AM CDT 8:41 PM CDT
Civil Twilight 5:59 AM CDT 9:09 PM CDT
Nautical Twilight 5:24 AM CDT 9:44 PM CDT
Astronomical Twilight 4:47 AM CDT 10:21 PM CDT
Moon 5:12 AM CDT (7/6) 7:26 PM CDT (7/6)
Length of Visible Light 15h 10m
Length of Day
14h 13m
Waning Crescent, 2% of the Moon is Illuminated
Jul 6
Waning Crescent
Jul 8
New
Jul 15
First Quarter
Jul 22
Full
Jul 29
Last Quarter

Hourly Weather History & Observations

Time (CDT) Temp. Heat Index Dew Point Humidity Pressure Visibility Wind Dir Wind Speed Gust Speed Precip Events Conditions
12:52 AM 86.0 °F 84.5 °F 55.0 °F 35% 29.93 in 10.0 mi SE 9.2 mph - N/A   Clear
1:52 AM 84.9 °F 83.9 °F 57.0 °F 38% 29.93 in 10.0 mi SSE 11.5 mph - N/A   Clear
2:52 AM 82.9 °F 82.4 °F 57.0 °F 41% 29.93 in 10.0 mi SE 9.2 mph - N/A   Clear
3:52 AM 82.0 °F 81.7 °F 57.0 °F 42% 29.92 in 10.0 mi SSE 6.9 mph - N/A   Clear
4:52 AM 80.1 °F 80.6 °F 57.9 °F 47% 29.92 in 10.0 mi East 3.5 mph - N/A   Clear
5:52 AM 79.0 °F - 57.9 °F 48% 29.92 in 10.0 mi North - - N/A   Clear
6:52 AM 79.0 °F - 59.0 °F 50% 29.93 in 10.0 mi SSE 3.5 mph - N/A   Clear
7:52 AM 81.0 °F 81.6 °F 60.1 °F 49% 29.94 in 10.0 mi SSE 6.9 mph - N/A   Clear
8:03 AM 80.6 °F 81.5 °F 60.8 °F 51% 29.98 in 10.0 mi SSE 5.8 mph - N/A   Mostly Cloudy
8:52 AM 84.9 °F 85.4 °F 62.1 °F 46% 29.94 in 10.0 mi South 8.1 mph - N/A   Partly Cloudy
9:52 AM 90.0 °F 90.3 °F 62.1 °F 39% 29.94 in 10.0 mi South 8.1 mph - N/A   Scattered Clouds
10:52 AM 93.0 °F 92.3 °F 59.0 °F 32% 29.94 in 10.0 mi South 15.0 mph 18.4 mph N/A   Scattered Clouds
11:52 AM 95.0 °F 94.0 °F 57.9 °F 29% 29.93 in 10.0 mi SSE 12.7 mph 16.1 mph N/A   Mostly Cloudy
12:52 PM 97.0 °F 95.7 °F 57.0 °F 26% 29.92 in 10.0 mi ESE 10.4 mph 21.9 mph N/A   Scattered Clouds
1:52 PM 98.1 °F 96.4 °F 55.9 °F 24% 29.91 in 10.0 mi SE 12.7 mph 18.4 mph N/A   Scattered Clouds
2:52 PM 99.0 °F 96.9 °F 54.0 °F 22% 29.89 in 10.0 mi SSE 11.5 mph 23.0 mph N/A   Mostly Cloudy
3:52 PM 100.0 °F 98.3 °F 55.0 °F 22% 29.88 in 10.0 mi SSE 12.7 mph - N/A   Mostly Cloudy
4:52 PM 99.0 °F 96.9 °F 54.0 °F 22% 29.86 in 10.0 mi SE 16.1 mph 21.9 mph N/A   Scattered Clouds
5:52 PM 98.1 °F - 52.0 °F 21% 29.84 in 10.0 mi ESE 12.7 mph - N/A   Clear
6:52 PM 97.0 °F - 48.9 °F 19% 29.85 in 10.0 mi SE 13.8 mph 20.7 mph N/A   Clear
7:52 PM 96.1 °F - 48.9 °F 20% 29.85 in 10.0 mi ESE 10.4 mph - N/A   Clear
8:52 PM 93.0 °F - 51.1 °F 24% 29.86 in 10.0 mi ESE 8.1 mph - N/A   Clear
9:52 PM 91.9 °F 90.0 °F 55.0 °F 29% 29.89 in 10.0 mi ESE 8.1 mph - N/A   Clear
10:52 PM 90.0 °F 87.9 °F 55.0 °F 30% 29.92 in 10.0 mi ESE 8.1 mph - N/A   Clear
11:52 PM 89.1 °F 87.3 °F 55.9 °F 32% 29.93 in 10.0 mi ESE 8.1 mph - N/A   Clear